Total_Precipitation_Accumulation
0.00 0.01 0.02 0.02 0.02 0.04 0.04 0.04 0.04 0.04 0.03 0.03 0.03 0.03 0.02 0.01 0.01 0.01 0.01 0.02 0.02 0.03 0.04 0.05 0.06 0.07 0.08 0.09 0.08 0.07 0.04 0.03 0.04 0.06 0.06 0.06 0.09 0.16 0.24 0.25 0.43 0.36 0.28
0.00 0.01 0.02 0.01 0.02 0.04 0.06 0.07 0.06 0.05 0.04 0.03 0.03 0.03 0.03 0.01 0.01 0.01 0.01 0.01 0.02 0.02 0.03 0.04 0.05 0.05 0.05 0.06 0.06 0.04 0.03 0.03 0.04 0.06 0.07 0.06 0.08 0.14 0.22 0.23 0.49 0.34 0.22
0.00 0.00 0.01 0.01 0.02 0.03 0.06 0.07 0.08 0.07 0.04 0.03 0.03 0.05 0.07 0.04 0.01 0.01 0.01 0.01 0.01 0.02 0.02 0.03 0.04 0.03 0.02 0.02 0.02 0.02 0.02 0.03 0.05 0.09 0.25 0.20 0.08 0.14 0.25 0.27 0.28 0.16 0.14
0.00 0.00 0.01 0.01 0.01 0.02 0.04 0.06 0.08 0.09 0.06 0.05 0.07 0.08 0.09 0.06 0.02 0.02 0.02 0.02 0.02 0.02 0.02 0.02 0.03 0.02 0.01 0.01 0.01 0.01 0.01 0.03 0.07 0.15 0.43 0.30 0.13 0.12 0.19 0.20 0.16 0.12 0.10
0.00 0.00 0.01 0.02 0.02 0.02 0.02 0.04 0.08 0.11 0.09 0.08 0.11 0.12 0.09 0.08 0.05 0.04 0.04 0.05 0.04 0.02 0.02 0.02 0.03 0.02 0.01 0.01 0.00 0.00 0.01 0.04 0.08 0.19 0.28 0.26 0.30 0.19 0.16 0.22 0.23 0.19 0.16
0.00 0.00 0.01 0.03 0.03 0.03 0.03 0.03 0.06 0.11 0.11 0.09 0.11 0.14 0.12 0.13 0.14 0.09 0.05 0.06 0.07 0.04 0.03 0.03 0.03 0.02 0.01 0.01 0.01 0.01 0.01 0.04 0.08 0.14 0.15 0.17 0.32 0.31 0.24 0.37 0.42 0.35 0.28
0.01 0.00 0.01 0.03 0.04 0.03 0.03 0.04 0.05 0.07 0.08 0.07 0.07 0.07 0.07 0.10 0.17 0.13 0.10 0.08 0.07 0.06 0.04 0.04 0.03 0.03 0.02 0.02 0.01 0.01 0.02 0.04 0.11 0.15 0.12 0.17 0.25 0.21 0.28 0.49 0.65 0.60 0.50
0.01 0.01 0.02 0.04 0.04 0.03 0.03 0.04 0.06 0.06 0.05 0.04 0.04 0.03 0.03 0.04 0.06 0.09 0.10 0.09 0.08 0.05 0.04 0.04 0.04 0.04 0.04 0.03 0.03 0.03 0.04 0.06 0.08 0.10 0.12 0.17 0.18 0.20 0.38 0.61 0.74 0.78 0.71
0.02 0.02 0.04 0.05 0.06 0.06 0.06 0.06 0.06 0.07 0.07 0.05 0.05 0.05 0.05 0.04 0.06 0.08 0.09 0.10 0.11 0.10 0.08 0.05 0.05 0.06 0.06 0.05 0.04 0.04 0.04 0.05 0.11 0.13 0.15 0.26 0.35 0.39 0.61 0.77 0.76 0.80 0.81
0.03 0.04 0.07 0.11 0.14 0.13 0.10 0.08 0.08 0.09 0.08 0.07 0.07 0.07 0.06 0.06 0.07 0.10 0.11 0.12 0.15 0.17 0.15 0.12 0.10 0.08 0.09 0.07 0.05 0.05 0.05 0.04 0.06 0.09 0.14 0.21 0.33 0.53 0.73 0.82 0.85 0.85 0.85
0.08 0.10 0.10 0.12 0.17 0.20 0.17 0.15 0.13 0.13 0.11 0.10 0.12 0.12 0.12 0.12 0.18 0.28 0.24 0.28 0.29 0.33 0.33 0.30 0.28 0.24 0.21 0.14 0.14 0.18 0.11 0.04 0.05 0.08 0.15 0.25 0.36 0.60 0.84 0.87 0.89 0.94 0.95
0.19 0.16 0.15 0.15 0.15 0.16 0.24 0.36 0.29 0.23 0.25 0.21 0.29 0.36 0.39 0.45 0.42 0.33 0.41 0.54 0.67 0.83 0.79 0.72 0.73 0.57 0.45 0.38 0.72 0.91 0.26 0.11 0.11 0.16 0.24 0.28 0.46 0.82 1.05 0.98 0.91 0.91 0.88
0.26 0.21 0.19 0.19 0.21 0.24 0.26 0.34 0.40 0.39 0.46 0.42 0.44 0.56 0.62 0.62 0.54 0.45 0.54 0.70 0.85 1.05 1.01 1.22 1.31 1.04 1.01 0.99 1.11 1.08 0.47 0.36 0.29 0.27 0.36 0.46 0.61 0.93 1.22 1.10 0.96 0.90 0.82
0.44 0.36 0.30 0.30 0.33 0.37 0.41 0.46 0.46 0.50 0.55 0.55 0.61 0.63 0.79 0.89 0.82 0.79 0.88 0.96 1.07 1.20 1.45 1.43 1.58 1.52 1.38 1.29 1.26 1.11 0.84 0.71 0.59 0.62 0.77 0.69 0.69 0.94 1.25 1.16 1.02 0.96 0.91
0.59 0.61 0.57 0.50 0.50 0.52 0.56 0.63 0.66 0.68 0.71 0.78 0.89 0.96 1.08 1.26 1.23 1.26 1.23 1.27 1.22 1.42 1.69 1.77 1.71 1.87 1.89 1.72 1.49 1.33 1.21 1.06 0.86 0.89 1.00 0.96 0.87 0.95 1.14 1.20 1.12 1.07 1.02
0.83 0.91 0.89 0.87 0.90 0.95 0.98 1.05 1.07 1.04 1.15 1.23 1.25 1.26 1.38 1.52 1.72 1.76 1.62 1.56 1.47 1.51 1.70 1.85 1.90 2.30 2.18 2.10 1.70 1.50 1.43 1.33 1.15 1.02 1.07 1.19 0.99 0.86 0.92 1.10 1.23 1.18 1.13
1.09 1.11 1.17 1.25 1.40 1.55 1.52 1.46 1.46 1.47 1.50 1.54 1.56 1.64 1.68 1.70 1.91 1.98 1.94 1.80 1.78 1.76 1.86 1.88 2.07 2.33 2.08 1.98 1.71 1.61 1.50 1.37 1.23 1.22 1.28 1.36 1.22 1.00 0.81 0.87 1.06 1.16 1.22
1.26 1.34 1.52 1.64 1.78 1.91 1.90 1.85 1.85 1.79 1.68 1.58 1.61 1.74 1.76 1.82 2.03 2.11 1.92 1.82 2.07 2.11 2.13 2.17 2.24 2.28 2.18 2.12 1.91 1.60 1.47 1.42 1.11 1.11 1.12 1.08 1.11 0.93 0.91 0.98 1.04 1.09 1.22
1.77 1.97 2.14 2.17 2.16 2.13 2.17 2.21 2.27 2.19 1.96 1.79 1.78 1.82 1.87 1.82 1.90 2.03 1.86 1.92 2.16 2.23 2.20 2.04 2.33 2.30 2.25 2.15 1.81 1.53 1.29 1.14 1.01 0.88 0.83 0.74 0.80 0.77 0.78 0.89 0.94 0.93 1.12
2.05 2.31 2.39 2.39 2.60 2.74 2.72 2.56 2.54 2.35 2.11 2.05 2.05 2.06 2.00 1.91 1.93 2.06 1.94 2.02 2.19 2.26 2.19 2.20 2.31 2.33 2.19 2.13 1.69 1.38 1.17 0.93 0.89 0.81 0.66 0.67 0.65 0.58 0.56 0.71 0.90 0.74 0.94
2.26 2.48 2.68 3.14 3.31 3.21 2.98 2.66 2.49 2.38 2.33 2.22 2.07 1.90 1.86 1.88 1.98 2.16 2.05 2.17 2.19 2.05 2.05 2.21 2.34 2.19 1.98 2.15 1.90 1.32 0.95 0.76 0.77 0.71 0.68 0.73 0.66 0.61 0.62 0.77 0.87 0.82 0.78
2.31 2.58 2.62 2.57 2.69 2.74 2.67 2.58 2.55 2.60 2.36 2.15 2.03 1.85 1.72 1.76 1.85 1.88 1.92 1.91 1.95 1.99 1.99 2.06 2.23 2.05 1.74 1.95 1.91 1.62 1.05 0.81 0.71 0.62 0.68 0.69 0.65 0.70 0.73 0.80 0.98 1.07 0.96
1.68 1.85 1.95 1.98 1.90 1.89 1.96 2.11 2.19 2.25 2.06 1.89 1.82 1.76 1.64 1.59 1.54 1.56 1.59 1.72 1.94 2.04 1.97 2.01 2.04 1.92 1.63 1.65 1.80 1.86 1.36 0.98 0.76 0.51 0.54 0.62 0.73 0.85 0.83 0.97 1.05 1.11 1.14
1.36 1.45 1.47 1.51 1.51 1.54 1.64 1.74 1.75 1.75 1.65 1.62 1.63 1.55 1.50 1.44 1.40 1.37 1.40 1.45 1.53 1.61 1.64 1.57 1.70 1.81 1.76 1.58 1.69 1.74 1.59 1.41 1.21 0.77 0.60 0.63 0.78 0.84 0.92 0.93 0.90 0.93 1.16
0.99 1.10 1.19 1.29 1.30 1.30 1.33 1.38 1.42 1.40 1.41 1.43 1.37 1.30 1.24 1.21 1.27 1.27 1.22 1.20 1.17 1.23 1.36 1.39 1.50 1.54 1.59 1.57 1.60 1.67 1.64 1.61 1.56 1.35 0.96 0.91 0.90 0.78 0.83 0.88 0.87 0.89 1.10
0.90 0.99 1.07 1.15 1.17 1.18 1.18 1.19 1.20 1.20 1.20 1.19 1.16 1.17 1.13 1.09 1.03 1.02 1.05 1.07 1.05 1.10 1.20 1.29 1.36 1.32 1.41 1.47 1.50 1.58 1.64 1.62 1.65 1.66 1.33 1.17 1.07 0.91 0.92 0.87 0.85 0.88 1.05